Location: Boullarre
(49.1305°N, 3.0047°E)
Time: 20:21:12
(UTC+00:00)

In-Cosmos 22 Rocket - Pass Details

Date: 03 February 2023
Orbit: 789 x 888 km, 81.2° (Epoch: 21 March)

Event Time Altitude Azimuth Distance (km) Brightness Sun altitude
Rises 18:30:11 0° 191° (S) 3,467 7.6 -16.9°
Reaches altitude 10° 18:32:37 10° 192° (SSW) 2,539 6.9 -17.3°
Maximum altitude 18:38:26 86° 281° (W) 898 4.3 -18.3°
Drops below altitude 10° 18:44:19 10° 11° (N) 2,561 6.6 -19.2°
Sets 18:46:46 0° 12° (NNE) 3,499 7.3 -19.6°
